CAPE
949 961 952 1027 1097 1130 1019 892 833 784 713 800 783 582 476 526 538 501 439 398 559 661 660 812 829 778 672 568 584 508 466 360 4 41 93 124 15 146 0 0 0 0 0 0 0 0 0 0 6 16 40 30 53 15 0 0 0 0 0 0 0 0 0
1020 986 978 975 986 933 918 868 834 698 602 711 728 606 605 739 898 1053 818 487 504 768 711 804 771 766 700 659 639 610 470 353 0 199 29 52 1 0 0 0 0 0 0 0 0 0 0 0 3 6 7 6 30 39 72 54 0 0 0 0 0 0 0
1026 1029 991 924 834 835 842 853 784 651 500 542 558 590 671 807 946 1077 977 593 520 632 880 949 911 829 748 669 615 590 507 441 447 398 7 4 0 0 0 0 0 0 0 0 0 0 0 0 0 2 9 6 9 2 82 105 53 0 0 0 19 0 0
1040 1041 999 900 808 814 830 818 752 630 543 549 568 675 721 778 896 1054 1033 839 717 725 708 749 849 838 860 827 743 622 464 478 539 456 376 0 252 199 0 0 0 0 0 0 0 0 0 0 0 5 27 11 6 2 57 120 0 0 61 0 92 1 0
980 1004 954 901 836 818 824 798 740 501 411 428 517 702 700 708 778 968 1094 1012 916 784 642 556 698 802 772 788 813 706 590 609 586 504 408 406 354 353 127 0 0 0 0 0 0 0 0 0 0 0 8 3 0 0 0 111 14 0 80 33 111 62 0
902 936 890 835 786 777 797 720 602 481 417 441 452 625 671 625 687 772 863 890 856 748 568 508 647 719 678 775 737 686 691 674 600 504 476 452 429 385 319 267 0 0 0 0 0 0 0 0 0 0 5 1 0 1 0 69 0 0 4 85 102 0 0
901 908 887 911 814 707 622 656 641 536 448 418 420 575 672 664 710 842 855 794 706 677 536 608 682 655 826 876 734 582 598 670 646 566 502 484 466 483 384 0 0 18 0 0 0 0 0 0 0 0 0 1 0 0 0 0 0 0 0 18 0 0 0
927 868 908 860 830 779 644 680 720 644 564 446 535 482 549 647 790 834 835 760 688 654 457 719 885 839 874 831 691 558 499 642 721 635 518 436 445 473 473 442 405 74 0 0 0 0 0 0 0 0 0 0 0 0 0 0 0 0 0 0 0 0 0
886 734 780 840 812 870 741 700 652 667 678 611 485 613 559 589 830 825 650 517 501 551 472 705 950 901 823 800 686 581 487 635 715 609 521 426 412 403 428 409 134 167 0 0 0 0 0 0 0 0 0 0 0 0 0 0 0 0 0 0 0 0 0
921 677 496 499 801 1014 955 867 839 739 651 586 497 488 518 684 826 733 534 335 455 606 682 784 890 867 759 759 724 612 482 573 686 646 570 512 421 350 385 57 390 411 377 213 52 0 166 0 0 0 0 0 0 0 0 0 0 0 0 0 0 0 0
879 836 689 768 707 874 983 918 874 777 660 627 530 385 449 467 671 604 489 457 602 607 765 978 1003 955 860 802 754 655 567 635 715 657 622 557 447 478 478 376 367 354 324 366 426 434 319 0 0 0 0 0 0 0 0 0 0 0 0 0 0 0 0
598 636 776 730 658 575 798 787 793 770 718 622 567 532 394 470 590 526 488 565 594 837 874 959 897 834 731 766 736 715 616 656 647 666 658 584 503 457 444 388 379 361 386 432 463 363 360 341 90 0 0 0 0 0 0 38 0 0 0 0 0 0 0
465 449 575 592 538 705 777 754 801 779 695 637 575 442 361 496 550 499 573 610 588 696 554 672 653 616 630 723 770 734 729 756 767 762 707 634 585 454 388 347 345 382 466 540 504 360 389 425 411 384 128 0 0 0 0 0 0 0 0 0 0 0 0
463 367 488 602 613 702 711 784 827 722 651 641 602 426 368 462 524 511 601 608 512 497 446 757 684 668 824 869 830 815 861 828 750 739 707 678 606 488 440 446 471 488 559 604 609 506 430 456 436 384 0 0 0 0 0 0 0 0 0 0 0 0 0
649 529 518 606 624 681 770 784 746 652 646 606 547 407 409 480 494 518 608 520 466 560 740 782 804 887 920 921 890 846 857 724 724 738 643 628 545 583 649 685 672 629 629 593 587 529 418 482 458 382 290 0 0 0 154 0 0 0 0 0 0 0 0
595 556 519 432 632 741 771 758 642 520 605 509 447 384 442 536 586 650 647 634 653 819 854 843 812 785 889 836 838 817 789 800 795 754 641 617 610 641 740 786 818 732 600 575 529 462 374 476 510 452 355 312 273 255 207 0 0 0 0 0 0 0 0
551 552 548 536 530 652 742 726 713 519 537 494 414 354 436 610 533 636 646 574 741 826 869 853 820 817 827 757 740 733 745 768 717 633 609 593 607 631 703 796 836 783 630 549 531 517 443 375 462 525 430 18 61 275 186 49 0 1 0 0 0 0 0
638 636 487 418 480 583 682 773 641 453 442 370 369 429 565 675 583 581 297 208 760 865 842 753 731 791 747 728 750 732 668 642 688 706 711 693 683 740 774 832 870 799 679 532 537 567 522 468 397 371 325 407 251 191 0 0 0 0 0 0 0 0 0
560 509 372 511 552 608 657 724 596 416 349 341 356 424 637 540 555 164 147 402 593 568 465 485 579 660 694 633 675 716 716 707 724 751 778 762 715 716 740 749 712 721 683 689 661 548 450 448 414 355 178 0 246 0 0 0 0 29 31 128 62 0 0
248 245 230 307 399 440 556 650 538 402 256 251 381 551 530 477 159 98 204 376 288 248 308 357 400 416 394 415 433 404 415 483 534 612 690 715 671 616 660 615 558 650 757 792 754 621 576 584 492 414 421 462 378 261 197 259 264 242 204 142 0 0 0
200 180 46 19 102 348 414 508 506 434 205 196 524 366 360 143 82 139 307 300 225 222 238 248 209 192 228 231 203 114 132 330 429 434 354 376 394 440 501 474 477 550 633 700 658 644 680 643 528 497 479 526 425 388 412 296 256 244 66 0 0 0 0
99 84 12 0 80 225 425 485 440 357 195 274 377 265 164 69 98 206 260 232 174 152 146 132 112 91 16 0 0 0 0 36 220 118 0 0 0 51 313 367 440 415 388 425 487 597 645 518 532 496 501 501 373 259 258 285 277 16 0 0 0 0 0
61 0 0 33 82 106 335 458 368 238 150 283 264 152 91 119 191 334 236 174 153 122 87 108 125 0 0 0 0 0 0 0 0 0 0 0 0 0 12 370 357 330 367 383 508 606 548 326 447 542 315 366 327 102 81 155 90 0 0 0 0 0 0
42 0 3 45 96 253 283 281 259 207 115 52 101 67 91 165 285 286 215 125 98 66 100 134 68 0 0 0 0 0 0 0 0 0 0 0 0 218 300 281 319 346 343 347 400 416 448 388 364 343 347 338 0 10 51 10 2 0 0 0 0 0 0
37 21 18 5 77 92 330 245 228 206 64 64 50 36 148 56 236 195 89 85 80 0 43 34 0 0 0 0 0 0 0 0 0 0 5 229 0 129 152 299 324 359 354 369 357 358 384 297 241 230 126 64 0 0 0 0 0 0 0 0 0 0 0
9 12 7 7 20 15 222 167 133 75 26 0 27 96 161 158 239 93 82 77 62 0 0 0 0 0 0 0 0 0 0 0 0 0 27 145 126 262 248 260 304 332 340 315 280 220 173 156 223 244 1 0 0 0 0 0 4 0 0 0 0 0 0
13 8 0 4 20 0 98 147 32 29 31 25 48 20 179 207 132 92 71 57 60 14 0 0 0 0 0 0 0 0 0 0 0 0 0 0 0 176 94 241 304 332 320 276 219 153 0 0 176 230 0 0 0 0 0 0 1 0 0 0 0 0 0
0 3 3 3 56 99 50 19 28 38 24 44 31 75 132 119 90 74 69 59 57 0 0 0 0 0 0 0 0 0 0 0 0 0 0 59 20 2 228 276 320 357 339 244 179 115 15 14 0 0 0 0 0 0 0 0 0 0 0 0 0 0 0
0 11 15 22 46 46 27 19 14 6 0 62 46 125 101 75 72 92 85 90 56 0 0 0 0 0 0 0 0 0 0 0 0 0 0 0 0 0 0 95 51 57 77 256 165 125 75 35 0 0 0 0 0 1 0 0 0 0 0 0 0 0 0
24 19 17 6 85 97 15 20 15 11 48 95 78 86 66 50 59 75 94 107 104 92 0 0 0 0 0 0 0 0 0 0 0 0 0 0 0 13 0 0 0 0 0 0 117 154 150 0 0 0 0 27 25 0 0 0 0 0 0 0 0 10 8
7 20 13 6 0 9 21 2 30 39 73 82 66 50 45 36 46 63 84 85 82 0 0 0 0 0 0 0 0 0 0 0 0 0 0 0 1 5 4 0 0 0 0 0 0 0 19 0 0 0 0 0 0 38 61 29 0 0 0 0 0 0 0
14 6 8 17 18 16 23 20 18 30 39 43 43 32 24 25 9 0 0 0 0 0 0 0 0 0 0 0 0 0 0 1 0 2 5 4 7 29 19 12 0 0 0 0 0 0 0 0 0 0 0 0 0 0 0 0 0 0 0 0 0 0 0
2 4 16 26 24 9 17 36 32 45 43 36 36 38 34 38 10 0 6 11 10 7 5 1 0 0 0 0 0 0 0 0 0 2 6 8 7 4 3 62 65 60 52 49 42 24 0 0 0 0 0 0 0 0 0 0 0 0 0 0 0 0 0
10 4 2 12 18 12 27 24 18 23 35 39 29 31 33 25 4 3 0 0 9 7 6 2 0 0 0 0 0 0 8 5 13 35 4 6 67 71 80 92 100 107 104 51 0 42 93 93 100 103 106 108 100 86 0 0 0 0 0 0 0 0 0
10 7 0 6 7 15 35 32 33 28 28 36 6 8 27 11 11 1 1 8 11 9 3 0 0 0 10 31 46 60 57 46 42 44 10 15 47 70 75 74 85 88 88 80 73 66 64 66 66 59 52 16 0 0 0 0 0 0 0 0 0 0 0
1 4 8 2 0 2 7 17 12 16 22 20 3 3 2 1 1 3 8 10 8 5 2 0 0 8 5 10 22 29 27 27 65 73 84 101 96 90 78 76 72 66 57 50 45 46 48 45 24 14 0 0 0 0 0 0 0 0 0 0 0 0 0
0 0 0 0 4 6 0 0 3 14 8 6 1 0 1 1 1 2 2 0 0 0 0 0 10 9 0 0 20 17 0 0 0 0 0 0 0 0 0 0 0 0 0 0 0 0 0 0 0 0 0 0 0 1 1 0 0 0 0 0 0 0 0
Wind_Speed
15 15 16 17 19 20 20 19 20 19 18 17 17 16 16 17 16 16 17 19 19 17 17 17 17 17 17 17 17 19 20 18 nan nan nan 14 nan 11 nan nan nan nan nan nan nan nan nan nan nan nan nan nan nan nan nan nan nan nan nan nan nan nan nan
17 18 18 19 20 21 21 22 22 21 20 20 19 18 18 18 17 16 17 18 18 17 18 19 19 17 16 18 20 21 19 17 nan 16 nan nan nan nan nan nan nan nan nan nan nan nan nan nan nan nan nan nan nan nan nan nan nan nan nan nan nan nan nan
19 21 21 20 19 21 21 23 23 23 22 21 20 20 20 20 19 18 17 16 16 18 20 21 20 19 18 19 19 19 19 17 16 17 nan nan nan nan nan nan nan nan nan nan nan nan nan nan nan nan nan nan nan nan nan 12 nan nan nan nan nan nan nan
19 22 23 22 21 21 20 22 23 23 23 23 23 22 21 21 20 19 17 15 17 19 21 22 20 19 19 19 19 20 19 17 16 17 16 nan 17 16 nan nan nan nan nan nan nan nan nan nan nan nan nan nan nan nan nan 12 nan nan nan nan nan nan nan
20 21 22 23 23 21 21 23 25 24 23 24 24 24 23 23 22 20 18 16 17 19 20 21 21 21 21 21 21 20 19 17 17 18 18 18 18 16 16 nan nan nan nan nan nan nan nan nan nan nan nan nan nan nan nan 15 nan nan nan nan 13 nan nan
20 20 22 23 22 22 23 25 26 24 24 23 24 25 24 23 23 21 19 17 18 19 20 21 21 22 22 22 23 21 20 18 17 18 18 16 17 16 15 15 nan nan nan nan nan nan nan nan nan nan nan nan nan nan nan nan nan nan nan nan 16 nan nan
18 19 20 22 21 22 22 22 26 26 22 20 21 22 24 24 23 20 19 18 18 19 20 22 23 23 23 23 23 22 20 19 19 18 17 17 16 15 18 nan nan nan nan nan nan nan nan nan nan nan nan nan nan nan nan nan nan nan nan nan nan nan nan
15 17 20 22 23 21 20 20 23 22 19 20 21 21 24 23 22 20 20 20 20 20 21 23 24 24 23 24 23 22 22 21 19 19 18 17 16 17 17 17 16 nan nan nan nan nan nan nan nan nan nan nan nan nan nan nan nan nan nan nan nan nan nan
16 19 21 22 22 20 18 17 18 18 18 20 22 24 22 21 22 20 20 18 20 22 23 23 24 24 24 24 25 25 22 22 20 18 18 18 17 17 18 18 19 17 nan nan nan nan nan nan nan nan nan nan nan nan nan nan nan nan nan nan nan nan nan
17 19 19 19 19 19 18 16 18 18 19 18 19 20 17 19 22 23 20 21 25 25 25 25 25 24 24 25 26 24 22 22 21 18 19 18 18 19 19 nan 18 19 19 18 nan nan 16 nan nan nan nan nan nan nan nan nan nan nan nan nan nan nan nan
21 17 17 16 15 19 20 17 18 19 17 17 19 19 18 18 23 22 23 26 27 27 25 27 26 24 24 25 26 24 22 22 21 20 19 19 19 20 20 20 20 21 21 20 17 17 17 nan nan nan nan nan nan nan nan nan nan nan nan nan nan nan nan
10 11 14 15 15 20 20 17 17 18 21 20 20 18 16 18 21 22 23 26 26 22 23 26 26 24 24 27 27 26 24 23 21 20 20 20 21 21 21 19 20 22 22 22 21 19 18 18 nan nan nan nan nan nan nan nan nan nan nan nan nan nan nan
14 13 17 15 15 16 19 19 20 22 23 22 19 17 16 18 21 23 23 24 26 22 21 27 26 25 26 27 28 27 24 23 21 20 20 20 22 22 21 20 20 21 22 24 23 21 19 19 19 18 17 nan nan nan nan nan nan nan nan nan nan nan nan
13 13 15 15 14 14 18 22 22 26 30 24 21 21 19 18 21 23 22 23 23 19 22 29 28 27 26 27 27 25 24 23 20 20 21 21 22 23 22 21 20 20 23 23 23 23 22 20 21 20 nan nan nan nan nan nan nan nan nan nan nan nan nan
11 12 15 16 16 15 19 19 24 30 31 23 21 24 24 23 25 22 22 23 23 21 24 29 30 28 26 27 26 25 24 23 21 21 22 21 23 23 23 22 20 21 21 22 23 23 22 22 21 21 19 nan nan nan 24 nan nan nan nan nan nan nan nan
16 16 13 14 15 17 19 23 27 31 30 25 22 25 26 25 22 26 24 23 24 25 26 28 30 29 26 26 26 25 25 23 22 22 22 21 23 24 24 22 21 21 22 22 22 22 23 23 22 19 17 17 19 23 23 nan nan nan nan nan nan nan nan
17 14 12 15 16 18 21 23 27 29 28 28 26 26 28 25 23 26 27 22 24 26 26 28 30 28 27 26 26 25 25 24 23 23 22 22 24 24 23 22 21 22 22 21 21 22 21 22 21 20 18 nan nan 24 22 nan nan nan nan nan nan nan nan
18 16 15 17 17 21 23 23 25 28 29 29 28 30 30 27 26 28 25 21 26 26 26 28 30 29 28 27 27 27 26 25 23 23 23 23 24 24 23 21 21 23 23 22 22 22 21 21 18 21 27 21 21 22 nan nan nan nan nan nan nan nan nan
18 16 19 19 17 22 24 24 26 28 30 29 30 29 28 26 25 27 24 25 27 27 28 30 31 30 28 29 29 28 27 25 24 25 24 24 24 23 22 21 22 23 23 21 21 22 22 20 21 25 23 nan 21 nan nan nan nan nan nan 20 nan nan nan
16 14 14 17 19 24 27 28 30 28 29 31 32 30 27 26 29 nan 27 28 29 30 31 33 34 33 31 31 30 28 26 25 26 26 24 23 23 22 22 23 23 23 22 21 22 22 22 22 22 22 22 23 22 23 23 24 24 24 23 24 nan nan nan
15 13 nan nan 23 27 30 30 29 27 29 32 33 28 27 32 nan 29 28 29 30 30 32 34 36 36 34 32 31 28 26 26 27 26 24 23 23 22 22 22 22 21 21 22 22 23 23 23 22 22 21 23 25 24 21 23 27 27 nan nan nan nan nan
nan nan nan nan nan 29 30 30 29 28 27 31 32 30 30 nan nan 35 30 30 30 30 32 33 36 nan nan nan nan nan nan nan 27 26 nan nan nan nan 23 23 23 24 23 24 25 25 27 26 23 20 25 28 26 25 24 25 27 nan nan nan nan nan nan
nan nan nan nan nan 28 29 29 29 27 27 32 36 34 nan 32 36 35 33 32 31 32 nan 32 35 nan nan nan nan nan nan nan nan nan nan nan nan nan nan 27 27 31 31 31 29 29 28 24 19 24 29 26 27 26 nan 26 nan nan nan nan nan nan nan
nan nan nan nan nan 27 29 29 30 30 31 nan 35 nan nan 32 37 33 35 34 nan nan 33 32 nan nan nan nan nan nan nan nan nan nan nan nan nan 27 28 29 29 30 31 31 30 34 32 30 27 27 31 31 nan nan nan nan nan nan nan nan nan nan nan
nan nan nan nan nan nan 29 27 30 32 nan nan nan nan 30 nan 36 34 nan nan nan nan nan nan nan nan nan nan nan nan nan nan nan nan nan 28 nan 28 29 30 30 30 30 30 30 33 35 35 34 37 40 nan nan nan nan nan nan nan nan nan nan nan nan
nan nan nan nan nan nan 28 28 29 nan nan nan nan nan 32 36 35 nan nan nan nan nan nan nan nan nan nan nan nan nan nan nan nan nan nan 30 30 30 30 31 31 31 29 33 33 33 35 36 38 41 nan nan nan nan nan nan nan nan nan nan nan nan nan
nan nan nan nan nan nan nan 29 nan nan nan nan nan nan 36 35 33 nan nan nan nan nan nan nan nan nan nan nan nan nan nan nan nan nan nan nan nan 32 nan 32 33 32 30 31 31 33 nan nan 34 33 nan nan nan nan nan nan nan nan nan nan nan nan nan
nan nan nan nan nan nan nan nan nan nan nan nan nan nan 40 36 nan nan nan nan nan nan nan nan nan nan nan nan nan nan nan nan nan nan nan nan nan nan 33 34 35 34 33 33 31 32 nan nan nan nan nan nan nan nan nan nan nan nan nan nan nan nan nan
nan nan nan nan nan nan nan nan nan nan nan nan nan 48 45 nan nan nan nan nan nan nan nan nan nan nan nan nan nan nan nan nan nan nan nan nan nan nan nan nan nan nan nan 34 34 37 nan nan nan nan nan nan nan nan nan nan nan nan nan nan nan nan nan
nan nan nan nan nan nan nan nan nan nan nan nan nan nan nan nan nan nan nan 37 36 nan nan nan nan nan nan nan nan nan nan nan nan nan nan nan nan nan nan nan nan nan nan nan 35 39 40 nan nan nan nan nan nan nan nan nan nan nan nan nan nan nan nan
nan nan nan nan nan nan nan nan nan nan nan nan nan nan nan nan nan nan nan nan nan nan nan nan nan nan nan nan nan nan nan nan nan nan nan nan nan nan nan nan nan nan nan nan nan nan nan nan nan nan nan nan nan nan nan nan nan nan nan nan nan nan nan
nan nan nan nan nan nan nan nan nan nan nan nan nan nan nan nan nan nan nan nan nan nan nan nan nan nan nan nan nan nan nan nan nan nan nan nan nan nan nan nan nan nan nan nan nan nan nan nan nan nan nan nan nan nan nan nan nan nan nan nan nan nan nan
nan nan nan nan nan nan nan nan nan nan nan nan nan nan nan nan nan nan nan nan nan nan nan nan nan nan nan nan nan nan nan nan nan nan nan nan nan nan nan nan nan nan nan nan nan nan nan nan nan nan nan nan nan nan nan nan nan nan nan nan nan nan nan
nan nan nan nan nan nan nan nan nan nan nan nan nan nan nan nan nan nan nan nan nan nan nan nan nan nan nan nan nan nan nan nan nan nan nan nan nan nan nan nan 30 32 35 nan nan nan nan nan nan 36 37 39 38 nan nan nan nan nan nan nan nan nan nan
nan nan nan nan nan nan nan nan nan nan nan nan nan nan nan nan nan nan nan nan nan nan nan nan nan nan nan nan nan nan nan nan nan nan nan nan nan nan nan nan nan nan nan nan nan nan nan nan nan nan nan nan nan nan nan nan nan nan nan nan nan nan nan
nan nan nan nan nan nan nan nan nan nan nan nan nan nan nan nan nan nan nan nan nan nan nan nan nan nan nan nan nan nan nan nan nan nan nan 36 nan nan nan nan nan nan nan nan nan nan nan nan nan nan nan nan nan nan nan nan nan nan nan nan nan nan nan
nan nan nan nan nan nan nan nan nan nan nan nan nan nan nan nan nan nan nan nan nan nan nan nan nan nan nan nan nan nan nan nan nan nan nan nan nan nan nan nan nan nan nan nan nan nan nan nan nan nan nan nan nan nan nan nan nan nan nan nan nan nan nan
Wind_Direction
296 280 279 271 261 251 245 241 238 236 234 233 235 233 236 241 246 251 256 259 260 256 244 239 247 249 250 251 258 258 254 254 nan nan nan 247 nan 244 nan nan nan nan nan nan nan nan nan nan nan nan nan nan nan nan nan nan nan nan nan nan nan nan nan
274 271 266 260 260 256 254 247 242 238 236 233 231 232 232 236 241 248 253 257 258 255 244 237 241 250 255 255 252 252 253 252 nan 252 nan nan nan nan nan nan nan nan nan nan nan nan nan nan nan nan nan nan nan nan nan nan nan nan nan nan nan nan nan
263 259 260 258 256 254 256 252 247 244 241 241 237 232 232 234 239 242 249 255 253 251 244 239 241 246 246 249 254 254 252 255 246 250 nan nan nan nan nan nan nan nan nan nan nan nan nan nan nan nan nan nan nan nan nan 246 nan nan nan nan nan nan nan
259 257 255 253 253 255 256 255 253 250 249 248 244 238 236 236 238 239 245 248 245 241 242 241 240 244 244 248 250 250 250 254 250 249 246 nan 252 250 nan nan nan nan nan nan nan nan nan nan nan nan nan nan nan nan nan 246 nan nan nan nan nan nan nan
260 255 252 251 251 253 255 254 247 245 247 252 252 249 241 238 238 236 237 241 240 237 238 238 237 239 241 243 246 247 245 245 246 248 247 250 252 250 249 nan nan nan nan nan nan nan nan nan nan nan nan nan nan nan nan 239 nan nan nan nan 253 nan nan
256 253 250 251 253 254 255 257 260 255 238 238 249 254 246 243 240 238 236 237 233 232 235 237 234 237 240 241 242 243 242 244 245 247 249 249 255 256 254 249 nan nan nan nan nan nan nan nan nan nan nan nan nan nan nan nan nan nan nan nan 250 nan nan
258 261 255 252 252 253 253 258 260 259 251 242 245 255 254 248 241 242 243 239 235 233 236 238 237 237 241 241 242 242 241 241 241 246 249 248 250 251 250 nan nan nan nan nan nan nan nan nan nan nan nan nan nan nan nan nan nan nan nan nan nan nan nan
259 270 267 262 258 252 251 257 257 257 254 252 249 242 249 249 244 242 243 235 229 232 236 239 237 238 241 242 242 242 240 240 243 246 247 251 253 252 251 254 254 nan nan nan nan nan nan nan nan nan nan nan nan nan nan nan nan nan nan nan nan nan nan
257 259 250 248 250 247 244 246 248 252 249 251 246 232 229 237 246 243 244 243 239 236 236 237 237 239 242 244 242 242 242 237 244 246 247 250 250 255 257 251 253 252 nan nan nan nan nan nan nan nan nan nan nan nan nan nan nan nan nan nan nan nan nan
267 259 252 240 237 231 227 224 230 246 254 251 247 241 235 239 245 246 246 238 237 238 235 231 233 237 243 244 245 245 245 243 246 248 247 251 249 253 255 nan 258 255 254 250 nan nan 244 nan nan nan nan nan nan nan nan nan nan nan nan nan nan nan nan
229 242 248 247 237 228 216 215 224 238 250 248 243 243 243 245 247 248 246 240 227 223 226 226 228 236 240 242 245 245 245 247 246 243 246 250 252 251 252 254 254 256 253 254 250 245 246 nan nan nan nan nan nan nan nan nan nan nan nan nan nan nan nan
245 239 254 263 245 227 224 230 236 236 237 243 248 251 250 246 246 244 242 240 230 218 220 227 230 234 237 240 241 242 240 243 245 246 245 249 248 252 254 257 254 256 256 255 250 246 244 245 nan nan nan nan nan nan nan nan nan nan nan nan nan nan nan
219 229 249 252 244 234 238 249 248 240 238 241 250 252 249 250 249 247 241 239 231 217 223 235 238 236 236 238 241 240 242 243 242 246 246 247 251 255 258 258 258 258 256 255 254 252 249 245 246 249 248 nan nan nan nan nan nan nan nan nan nan nan nan
221 235 255 272 266 250 248 252 251 247 244 244 252 257 253 248 248 245 243 236 236 232 235 244 241 238 236 239 238 240 244 246 247 246 248 250 251 257 260 260 258 255 254 256 256 256 254 251 249 250 nan nan nan nan nan nan nan nan nan nan nan nan nan
244 239 245 256 265 266 263 261 253 252 257 257 259 257 250 243 241 239 239 237 239 242 245 246 241 237 238 240 239 237 242 245 245 247 249 253 255 257 259 261 258 255 254 256 255 255 256 254 255 256 254 nan nan nan 262 nan nan nan nan nan nan nan nan
236 232 239 250 255 261 262 255 255 258 266 269 262 257 250 241 238 238 231 238 243 246 247 244 236 236 239 241 241 238 242 247 249 251 253 256 258 257 259 260 260 256 253 252 251 253 255 256 255 261 259 259 263 265 266 nan nan nan nan nan nan nan nan
245 249 253 247 250 258 260 265 272 272 270 267 261 252 242 244 240 242 226 227 246 247 247 241 235 235 241 241 240 242 243 246 249 253 258 259 260 261 263 261 259 258 255 254 250 251 252 255 259 261 262 nan nan 253 262 nan nan nan nan nan nan nan nan
247 249 251 249 249 258 265 271 275 274 268 263 255 250 238 237 244 239 227 234 249 251 248 244 238 235 239 241 241 240 241 244 248 255 259 261 262 264 264 266 261 259 257 255 250 250 251 254 254 253 252 249 257 256 nan nan nan nan nan nan nan nan nan
238 243 253 255 259 263 267 270 271 269 269 265 254 247 246 242 241 232 227 241 253 253 250 246 241 240 241 241 238 238 240 243 247 252 256 258 262 263 266 264 260 261 260 260 256 252 252 254 252 256 269 nan 259 nan nan nan nan nan nan 275 nan nan nan
248 257 271 274 267 264 266 267 268 270 260 251 251 247 247 249 235 nan 231 251 258 252 248 245 242 240 241 240 240 239 239 241 244 250 253 258 260 262 261 260 259 260 262 260 258 258 256 252 256 262 266 268 267 265 264 264 264 268 270 268 nan nan nan
270 275 nan nan 269 267 265 261 264 266 259 250 249 250 250 248 nan 229 242 260 257 250 248 245 242 240 239 242 241 238 239 242 245 248 251 253 255 257 256 256 257 257 259 259 260 258 261 259 255 258 262 265 267 269 266 261 263 267 nan nan nan nan nan
nan nan nan nan nan 273 273 266 262 261 251 242 245 245 244 nan nan 233 248 266 259 245 244 244 242 nan nan nan nan nan nan nan 246 249 nan nan nan nan 244 243 243 244 246 253 257 260 259 259 259 264 258 259 266 267 259 257 261 nan nan nan nan nan nan
nan nan nan nan nan 272 275 270 264 258 248 242 242 239 nan 241 237 244 265 272 256 241 nan 240 236 nan nan nan nan nan nan nan nan nan nan nan nan nan nan 243 244 247 247 249 251 254 267 277 265 257 269 271 265 266 nan 254 nan nan nan nan nan nan nan
nan nan nan nan nan 261 264 263 257 248 240 nan 243 nan nan 236 237 253 273 272 nan nan 239 236 nan nan nan nan nan nan nan nan nan nan nan nan nan 245 243 244 245 246 247 247 250 258 265 263 267 269 268 264 nan nan nan nan nan nan nan nan nan nan nan
nan nan nan nan nan nan 258 259 256 246 nan nan nan nan 239 nan 242 262 nan nan nan nan nan nan nan nan nan nan nan nan nan nan nan nan nan 244 nan 246 246 246 245 246 247 250 253 257 261 262 260 258 260 nan nan nan nan nan nan nan nan nan nan nan nan
nan nan nan nan nan nan 258 256 254 nan nan nan nan nan 238 234 246 nan nan nan nan nan nan nan nan nan nan nan nan nan nan nan nan nan nan 243 245 247 248 250 249 247 246 246 252 256 261 261 260 262 nan nan nan nan nan nan nan nan nan nan nan nan nan
nan nan nan nan nan nan nan 250 nan nan nan nan nan nan 231 239 250 nan nan nan nan nan nan nan nan nan nan nan nan nan nan nan nan nan nan nan nan 247 nan 251 251 249 247 249 251 256 nan nan 262 261 nan nan nan nan nan nan nan nan nan nan nan nan nan
nan nan nan nan nan nan nan nan nan nan nan nan nan nan 227 240 nan nan nan nan nan nan nan nan nan nan nan nan nan nan nan nan nan nan nan nan nan nan 251 251 253 252 251 250 249 256 nan nan nan nan nan nan nan nan nan nan nan nan nan nan nan nan nan
nan nan nan nan nan nan nan nan nan nan nan nan nan 222 222 nan nan nan nan nan nan nan nan nan nan nan nan nan nan nan nan nan nan nan nan nan nan nan nan nan nan nan nan 252 248 258 nan nan nan nan nan nan nan nan nan nan nan nan nan nan nan nan nan
nan nan nan nan nan nan nan nan nan nan nan nan nan nan nan nan nan nan nan 240 247 nan nan nan nan nan nan nan nan nan nan nan nan nan nan nan nan nan nan nan nan nan nan nan 249 256 263 nan nan nan nan nan nan nan nan nan nan nan nan nan nan nan nan
nan nan nan nan nan nan nan nan nan nan nan nan nan nan nan nan nan nan nan nan nan nan nan nan nan nan nan nan nan nan nan nan nan nan nan nan nan nan nan nan nan nan nan nan nan nan nan nan nan nan nan nan nan nan nan nan nan nan nan nan nan nan nan
nan nan nan nan nan nan nan nan nan nan nan nan nan nan nan nan nan nan nan nan nan nan nan nan nan nan nan nan nan nan nan nan nan nan nan nan nan nan nan nan nan nan nan nan nan nan nan nan nan nan nan nan nan nan nan nan nan nan nan nan nan nan nan
nan nan nan nan nan nan nan nan nan nan nan nan nan nan nan nan nan nan nan nan nan nan nan nan nan nan nan nan nan nan nan nan nan nan nan nan nan nan nan nan nan nan nan nan nan nan nan nan nan nan nan nan nan nan nan nan nan nan nan nan nan nan nan
nan nan nan nan nan nan nan nan nan nan nan nan nan nan nan nan nan nan nan nan nan nan nan nan nan nan nan nan nan nan nan nan nan nan nan nan nan nan nan nan 253 250 255 nan nan nan nan nan nan 253 253 259 260 nan nan nan nan nan nan nan nan nan nan
nan nan nan nan nan nan nan nan nan nan nan nan nan nan nan nan nan nan nan nan nan nan nan nan nan nan nan nan nan nan nan nan nan nan nan nan nan nan nan nan nan nan nan nan nan nan nan nan nan nan nan nan nan nan nan nan nan nan nan nan nan nan nan
nan nan nan nan nan nan nan nan nan nan nan nan nan nan nan nan nan nan nan nan nan nan nan nan nan nan nan nan nan nan nan nan nan nan nan 259 nan nan nan nan nan nan nan nan nan nan nan nan nan nan nan nan nan nan nan nan nan nan nan nan nan nan nan
nan nan nan nan nan nan nan nan nan nan nan nan nan nan nan nan nan nan nan nan nan nan nan nan nan nan nan nan nan nan nan nan nan nan nan nan nan nan nan nan nan nan nan nan nan nan nan nan nan nan nan nan nan nan nan nan nan nan nan nan nan nan nan